[[{"header":{"parameterUnit":"m.s-1","parameterCategory":1,"la1":30.2992,"la2":30.254,"lo1":-89.0895,"lo2":-89.0443,"dy":0.0025,"dx":0.0025,"nx":19,"ny":19,"refTime":"2026-04-08T03:00:00:Z","depth":0,"parameterNumber":2,"parameterNumberName":"U-component_of_WINDS"},"data":[0,0,0,-5.8422,-5.8427,-5.8628,-5.8628,-5.8927,-5.893,0,0,0,0,0,0,0,0,0,0,0,-5.8388,-5.8391,-5.8422,-5.8427,-5.8628,-5.8628,-5.8927,-5.893,0,0,0,0,0,0,0,0,0,0,0,-5.8386,-5.839,-5.8393,-5.8428,-5.8627,-5.8628,-5.8926,-5.876,0,0,0,0,0,0,0,0,0,0,-5.8558,-5.855,-5.8389,-5.8394,-5.8429,-5.8627,-5.8628,-5.8751,-5.877,-5.8854,0,-5.8935,0,-5.8938,-5.8953,-5.8954,0,0,0,-5.8409,-5.8535,-5.8566,-5.8394,-5.8432,-5.8627,-5.8532,-5.8761,-5.8783,-5.888,-5.8939,-5.8949,-5.8943,-5.8955,-5.8957,-5.9501,-5.9504,0,0,-5.8398,-5.8438,-5.8551,-5.8581,-5.8552,-5.8526,-5.8538,-5.8773,-5.8841,-5.894,-5.8955,-5.8948,-5.8957,-5.896,-5.9498,-5.9502,0,0,0,-5.8378,-5.8431,-5.8455,-5.857,-5.8603,-5.8532,-5.8547,-5.8831,-5.8835,-5.8958,-5.8951,-5.8959,-5.8963,-5.9494,-5.9499,-5.9704,0,0,0,-5.8371,-5.8419,-5.8451,-5.8478,-5.8599,-5.8719,-5.8599,-5.8819,-5.8844,-5.895,-5.8959,-5.8967,-5.949,-5.9497,-5.969,-5.9794,0,0,0,-5.8366,-5.8418,-5.8456,-5.848,-5.8567,-5.8714,-5.8732,-5.8823,-5.8841,-5.8954,-5.8968,-5.9488,-5.9496,-5.9678,-5.9773,-5.9946,0,0,0,-5.8373,-5.8637,-5.846,-5.8753,-5.8566,-5.884,-5.873,-5.8933,-5.9055,-5.8961,-5.9491,-5.9499,-5.9674,-5.9761,-5.9933,-6.0097,-6.0169,0,0,-5.8729,-5.8682,-5.8851,-5.8698,-5.9013,-5.8806,-5.9152,-5.9227,-5.9203,-5.9403,-5.9416,-5.9695,-5.9772,-5.9943,-6.0567,-6.0624,0,0,0,-5.8977,-5.9098,-5.9173,-5.929,-5.9353,-5.9415,-5.9432,-5.9459,-5.9627,-5.9314,-5.9804,-5.9849,-5.9948,-6.0024,-6.0073,-6.0154,-5.9536,-5.9536,-5.9535,-5.9537,-5.9489,-5.9765,-5.9742,-5.9857,-5.9871,-5.996,-5.9999,-5.992,-6.0037,-6.0095,-6.0479,-6.057,-6.0606,-6.0692,-6.018,-6.0181,-6.0182,-6.0182,-6.0051,-6.0214,-6.0101,-6.0327,-6.0276,-6.0466,-6.0491,-6.0428,-6.0597,-6.0432,-6.0517,-6.0337,-6.0671,-6.0743,-6.0197,-6.0195,-6.0193,-6.0191,-6.019,-6.041,-6.0479,-6.0508,-6.067,-6.0802,-6.077,-6.0937,-6.0886,-6.0839,-6.0923,-6.0977,-6.0974,-6.0961,-6.0953,-6.0954,-6.0956,-6.0957,-6.0958,-6.0959,-6.0769,-6.0794,-6.094,-6.1029,-6.1096,-6.1178,-6.1196,-6.1261,-6.132,-6.1269,-6.1269,-6.1177,-6.0714,-6.0597,-6.0979,-6.0975,-6.0973,-6.0971,-6.0969,-6.1302,-6.1173,-6.1399,-6.1467,-6.1565,-6.1697,-6.163,-6.1767,-6.1814,-6.1898,-6.1788,-6.1455,-6.1403,-6.1364,-6.1266,-6.1799,-6.1799,-6.1799,-6.1799,-6.1602,-6.1571,-6.1789,-6.1899,-6.2003,-6.1965,-6.2221,-6.2238,-6.2235,-6.2261,-6.2177,-6.2045,-6.2007,-6.1977,-6.1925,-6.1832,-6.2497,-6.2498,-6.2498,-6.1925,-6.1902,-6.2129,-6.2123,-6.2196,-6.226,-6.2499,-6.2631,-6.2602,-6.2526,-6.2279,-6.225,-6.2035,-6.1968,-6.1883,-6.1802,-6.1632,0,0]},{"header":{"parameterUnit":"m.s-1","parameterCategory":1,"la1":30.2992,"la2":30.254,"lo1":-89.0895,"lo2":-89.0443,"dy":0.0025,"dx":0.0025,"nx":19,"ny":19,"refTime":"2026-04-08T03:00:00:Z","depth":0,"parameterNumber":3,"parameterNumberName":"V-component_of_WINDS"},"data":[0,0,0,-0.6333,-0.6337,-0.6554,-0.6556,-0.6786,-0.6787,0,0,0,0,0,0,0,0,0,0,0,-0.6239,-0.6239,-0.6333,-0.6337,-0.6554,-0.6556,-0.6785,-0.6787,0,0,0,0,0,0,0,0,0,0,0,-0.6239,-0.6239,-0.624,-0.6338,-0.6554,-0.6556,-0.6785,-0.6638,0,0,0,0,0,0,0,0,0,0,-0.6436,-0.6319,-0.6239,-0.624,-0.6339,-0.6554,-0.6556,-0.6632,-0.6647,-0.6666,0,-0.6674,0,-0.6734,-0.6799,-0.68,0,0,0,-0.636,-0.6306,-0.6391,-0.624,-0.6341,-0.6553,-0.6463,-0.6641,-0.6658,-0.6686,-0.6678,-0.6688,-0.6738,-0.6801,-0.6801,-0.6831,-0.683,0,0,-0.6348,-0.6262,-0.6379,-0.6401,-0.6363,-0.6456,-0.6469,-0.6652,-0.6638,-0.6679,-0.6694,-0.6741,-0.6802,-0.6803,-0.6832,-0.6831,0,0,0,-0.6298,-0.6252,-0.6335,-0.639,-0.6433,-0.6461,-0.6477,-0.663,-0.6664,-0.6697,-0.6744,-0.6803,-0.6805,-0.6833,-0.6832,-0.6701,0,0,0,-0.6292,-0.6224,-0.6328,-0.6278,-0.6428,-0.6534,-0.6449,-0.6651,-0.6675,-0.6743,-0.6803,-0.6807,-0.6834,-0.6832,-0.6707,-0.6653,0,0,0,-0.6235,-0.6218,-0.6238,-0.6273,-0.6363,-0.6533,-0.6578,-0.6658,-0.6702,-0.68,-0.6807,-0.6835,-0.6833,-0.6712,-0.6662,-0.6635,0,0,0,-0.6149,-0.612,-0.6235,-0.6221,-0.636,-0.645,-0.6578,-0.665,-0.6718,-0.6804,-0.6834,-0.6832,-0.6714,-0.6668,-0.664,-0.6595,-0.6569,0,0,-0.6065,-0.6107,-0.6106,-0.6215,-0.6261,-0.6424,-0.6453,-0.6598,-0.6687,-0.6778,-0.678,-0.6705,-0.6663,-0.6636,-0.6452,-0.643,0,0,0,-0.605,-0.6047,-0.6079,-0.6139,-0.6248,-0.6337,-0.6487,-0.654,-0.6622,-0.6716,-0.6691,-0.6669,-0.6656,-0.6639,-0.6621,-0.6615,-0.682,-0.6821,-0.6821,-0.5806,-0.592,-0.5925,-0.6065,-0.6121,-0.6275,-0.6332,-0.6432,-0.6532,-0.6523,-0.6551,-0.6425,-0.6402,-0.6389,-0.6382,-0.6538,-0.6537,-0.6537,-0.6536,-0.5692,-0.5706,-0.5838,-0.589,-0.6011,-0.6057,-0.6204,-0.6272,-0.6333,-0.6414,-0.6409,-0.6487,-0.6361,-0.6361,-0.6528,-0.6529,-0.653,-0.6531,-0.6532,-0.5544,-0.5571,-0.5636,-0.5734,-0.5797,-0.5941,-0.5992,-0.6101,-0.6205,-0.6199,-0.624,-0.6243,-0.6258,-0.6211,-0.6211,-0.621,-0.621,-0.621,-0.6209,-0.5365,-0.5443,-0.5472,-0.5584,-0.5636,-0.5719,-0.5873,-0.5929,-0.6018,-0.6093,-0.6094,-0.6194,-0.6328,-0.6358,-0.6203,-0.6204,-0.6205,-0.6206,-0.6206,-0.5206,-0.5259,-0.5303,-0.5355,-0.5496,-0.555,-0.5689,-0.5792,-0.5854,-0.5875,-0.5977,-0.6058,-0.6109,-0.6125,-0.6151,-0.5952,-0.5952,-0.5952,-0.5952,-0.5081,-0.5118,-0.5187,-0.5263,-0.535,-0.5479,-0.5526,-0.5645,-0.5777,-0.5822,-0.5867,-0.5912,-0.5922,-0.5968,-0.5987,-0.6013,-0.5783,-0.5783,-0.5783,-0.4989,-0.5039,-0.5057,-0.5185,-0.5303,-0.5401,-0.5448,-0.5531,-0.5692,-0.5779,-0.586,-0.5867,-0.594,-0.5958,-0.6045,-0.6072,-0.6122,0,0]}]]